CW4132 Weather Reports


time (UTC)temp
C
wind
direction
speed
KPH
gust
KPH
rain 1hr
cm
rain 24hr
cm
rain mn
cm
humidity
%
barometer
mb
20260510190016 32 163 0.0 0.0 0.00 0.00 0.00 29 1015.5
20260510184556 30 30 0.0 0.0 0.00 0.00 0.00 35 1015.5
20260510183037 30 180 0.0 0.0 0.00 0.00 0.00 34 1015.7
20260510181526 28 234 0.0 0.0 0.00 0.00 0.00 35 1015.9
20260510180010 30 239 0.0 0.0 0.00 0.00 0.00 34 1016.1
20260510174555 28 239 0.0 0.0 0.00 0.00 0.00 35 1016.2
20260510173041 30 239 0.0 0.0 0.00 0.00 0.00 34 1016.1
20260510171531 28 239 0.0 0.0 0.00 0.00 0.00 32 1016.1
20260510170021 30 162 0.0 0.0 0.00 0.00 0.00 34 1016.2
20260510164502 30 162 0.0 0.0 0.00 0.00 0.00 32 1016.4
20260510163052 29 162 0.0 0.0 0.00 0.00 0.00 36 1016.6
20260510161534 28 232 0.0 0.0 0.00 0.00 0.00 38 1016.4
20260510160026 26 238 0.0 0.0 0.00 0.00 0.00 43 1016.7
20260510154559 26 239 0.0 0.0 0.00 0.00 0.00 41 1016.9
20260510154502 27 239 0.0 0.0 0.00 0.00 0.00 40 1017.0
20260510153050 27 239 0.0 0.0 0.00 0.00 0.00 43 1017.1
20260510151533 26 239 0.0 0.0 0.00 0.00 0.00 48 1016.9
20260510150020 25 239 0.0 0.0 0.00 0.00 0.00 48 1016.8
20260510144554 25 239 0.0 0.0 0.00 0.00 0.00 53 1016.9
20260510143030 25 239 0.0 0.0 0.00 0.00 0.00 57 1016.9
20260510141524 23 239 0.0 0.0 0.00 0.00 0.00 62 1016.7
20260510140055 22 239 0.0 0.0 0.00 0.00 0.00 64 1016.8
20260510134536 22 239 0.0 0.0 0.00 0.00 0.00 68 1016.9
20260510133016 20 239 0.0 0.0 0.00 0.00 0.00 77 1016.9
20260510131550 19 239 0.0 0.0 0.00 0.00 0.00 81 1016.7
20260510130037 18 239 0.0 0.0 0.00 0.00 0.00 85 1016.5
20260510124510 18 239 0.0 0.0 0.00 0.00 0.00 86 1016.3
20260510123010 17 239 0.0 0.0 0.00 0.00 0.00 91 1016.3
20260510121550 17 239 0.0 0.0 0.00 0.00 0.00 92 1016.2
20260510120044 16 239 0.0 0.0 0.00 0.00 0.00 93 1016.0
20260510114536 16 239 0.0 0.0 0.00 0.00 0.00 93 1015.9
20260510113014 16 239 0.0 0.0 0.00 0.00 0.00 93 1015.7
20260510111558 15 239 0.0 0.0 0.00 0.00 0.00 93 1015.6
20260510110045 15 239 0.0 0.0 0.00 0.00 0.00 93 1015.2
20260510104534 15 239 0.0 0.0 0.00 0.00 0.00 93 1015.0
20260510103016 15 239 0.0 0.0 0.00 0.00 0.00 92 1014.6
20260510101608 15 239 0.0 0.0 0.00 0.00 0.00 93 1014.5
20260510100044 15 239 0.0 0.0 0.00 0.00 0.00 92 1014.3
20260510094537 15 239 0.0 0.0 0.00 0.00 0.00 92 1014.0
20260510093016 15 239 0.0 0.0 0.00 0.00 0.00 92 1013.8
20260510091558 15 239 0.0 0.0 0.00 0.00 0.00 92 1013.8
20260510090050 15 239 0.0 0.0 0.00 0.00 0.00 92 1013.6
20260510084535 16 239 0.0 0.0 0.00 0.00 0.00 92 1013.3
20260510083020 16 239 0.0 0.0 0.00 0.00 0.00 92 1013.3
20260510081512 16 239 0.0 0.0 0.00 0.00 0.00 91 1013.3
20260510080044 16 239 0.0 0.0 0.00 0.00 0.00 92 1013.3
20260510074532 16 239 0.0 0.0 0.00 0.00 0.00 91 1013.2
20260510073018 16 239 0.0 0.0 0.00 0.00 0.00 91 1013.1
20260510071508 16 239 0.0 0.0 0.00 0.00 0.00 91 1013.2
20260510070054 16 239 0.0 0.0 0.00 0.00 0.00 90 1013.0
20260510064537 16 239 0.0 0.0 0.00 0.00 0.00 90 1013.1
20260510063025 16 239 0.0 0.0 0.00 0.00 0.00 89 1012.9
20260510061519 16 239 0.0 0.0 0.00 0.00 0.00 89 1013.1
20260510060058 17 239 0.0 0.0 0.00 0.00 0.00 89 1013.1
20260510054555 17 239 0.0 0.0 0.00 0.00 0.00 89 1013.3
20260510053034 17 239 0.0 0.0 0.00 0.00 0.00 89 1013.3
20260510051530 17 239 0.0 0.0 0.00 0.00 0.00 88 1013.6
20260510050011 17 239 0.0 0.0 0.00 0.00 0.00 88 1013.6
20260510044551 17 239 0.0 0.0 0.00 0.00 0.00 89 1013.6
20260510043038 17 239 0.0 0.0 0.00 0.00 0.00 88 1013.6
20260510041526 17 239 0.0 0.0 0.00 0.00 0.00 89 1013.6
20260510040011 17 239 0.0 0.0 0.00 0.00 0.00 90 1013.5
20260510034555 16 239 0.0 0.0 0.00 0.00 0.00 90 1013.4
20260510033047 16 239 0.0 0.0 0.00 0.00 0.00 90 1013.3
20260510031546 16 239 0.0 0.0 0.00 0.00 0.00 89 1013.4
20260510030016 16 239 0.0 0.0 0.00 0.00 0.00 88 1013.3
20260510024612 16 239 0.0 0.0 0.00 0.00 0.00 88 1013.2
20260510024502 16 239 0.0 0.0 0.00 0.00 0.00 88 1013.3
20260510023044 16 239 0.0 0.0 0.00 0.00 0.00 88 1013.2
20260510021533 17 239 0.0 0.0 0.00 0.00 0.00 86 1013.5
20260510020024 17 239 0.0 0.0 0.00 0.00 0.00 85 1013.1
20260510014512 17 239 0.0 0.0 0.00 0.00 0.00 84 1012.9
20260510013104 17 239 0.0 0.0 0.00 0.00 0.00 83 1012.6
20260510011538 18 239 0.0 0.0 0.00 0.00 0.00 81 1012.4
20260510010028 18 239 0.0 0.0 0.00 0.00 0.00 80 1012.3
20260510004512 19 239 0.0 0.0 0.00 0.00 0.00 78 1012.4
20260510003058 20 239 0.0 0.0 0.00 0.00 0.00 75 1012.4
20260510001550 21 239 0.0 0.0 0.00 0.00 0.00 72 1012.3
20260510000031 21 239 0.0 0.0 0.00 0.00 0.00 71 1012.1